Other Public Products
Issued by NWS Grand Forks, ND

Home | Current Version | Previous Version | Graphics & Text | Print | Product List | Glossary On
Versions: 1 2 3 4 5 6 7 8 9 10 11 12 13 14 15 16 17 18 19 20 21 22 23 24 25 26 27 28 29 30 31 32 33 34 35 36 37 38 39 40 41 42 43 44 45 46 47 48 49 50
000
FPUS83 KFGF 190031
OPUFGF
PRAIRIE TO PINES WEATHER ROUNDUP
NATIONAL WEATHER SERVICE EASTERN NORTH DAKOTA/GRAND FORKS ND
700 PM CDT FRI APR 18 2014

 **SATELLITE DATA USED TO AUGMENT SKY COVER AT AUTOMATED STATIONS**
 *****  WEATHER ACROSS EASTERN NORTH DAKOTA  *****

CITY           SKY/WX    TMP DP  RH WIND       PRES   REMARKS
GRAND FORKS    CLOUDY    48  30  49 SE23G32   30.01F
6HR MIN TEMP:  48; 6HR MAX TEMP:  53;

GRAND FORKS AF CLOUDY    48  30  49 SE24G31   30.00F
GRAND CITY NWS   N/A     46 N/A N/A SE18        N/A
BUXTON           N/A     46  33  60 SE25G38     N/A
DEVILS LAKE    CLOUDY    43  28  56 SE24G33   29.87F
6HR MIN TEMP:  45; 6HR MAX TEMP:  48;

FARGO          CLOUDY    48  27  44 SE22G35   30.01F
6HR MIN TEMP:  32; 6HR MAX TEMP:  53; 6HR PCP: TRACE;

WAHPETON ARPT  MOCLDY    45  30  57 SE29G37   30.01F
$$

 *****  WEATHER ACROSS CENTRAL AND WESTERN NORTH DAKOTA  *****

CITY           SKY/WX    TMP DP  RH WIND       PRES   REMARKS
JAMESTOWN      CLOUDY    47  36  65 SE36G47   29.83F
6HR MIN TEMP:  47; 6HR MAX TEMP:  54;

BISMARCK       PTSUNNY   56  38  50 E23G31    29.67F
6HR MIN TEMP:  54; 6HR MAX TEMP:  66;

MINOT          CLOUDY    50  34  54 E23G33    29.72F
6HR MIN TEMP:  46; 6HR MAX TEMP:  54; 6HR PCP: TRACE;

MINOT AFB      CLOUDY    49  35  58 SE20G28   29.73F
6HR MIN TEMP:  45; 6HR MAX TEMP:  26;

GARRISON         N/A     52  36  54 E23G35    29.68S
6HR MIN TEMP:  49; 6HR MAX TEMP:  58;

WILLISTON      LGT RAIN  49  43  80 W21G26    29.68R
6HR MIN TEMP:  48; 6HR MAX TEMP:  57; 6HR PCP: TRACE;

DICKINSON      PTSUNNY   61  37  41 SE12      29.60F
6HR MIN TEMP:  51; 6HR MAX TEMP:  64;

HETTINGER      MOSUNNY   64  40  41 E9        29.61S
6HR MIN TEMP:  53; 6HR MAX TEMP:  66;

$$

 *****  OTHER OBSERVATIONS NORTHEAST NORTH DAKOTA  *****

CITY           SKY/WX    TMP DP  RH WIND       PRES   REMARKS
WALHALLA         N/A     46  32  57 SE17G24   29.99F
LANGDON        CLOUDY    45  28  53 SE25G32   29.93F
CAVALIER       CLOUDY    46  32  57 SE14G21   30.01F
GRAFTON        CLOUDY    46  32  57 SE18G25   30.01F
CANDO          FAIR      45  32  61 SE25G37   29.87F
FORT TOTTEN      N/A     46  28  48 SE16      29.95S
ROLLA          MOCLDY    43  32  65 SE26G35   29.85F
RUGBY          FAIR      45  32  61 SE29G36   29.79F
 ***** THE ABOVE OBSERVATIONS ARE NON NWS ARE NOT QUALITY
        CONTROLLED AND MAY MIS-REPORT RAIN FOR SNOW...
$$

 *****  OTHER OBSERVATIONS SOUTHEAST NORTH DAKOTA *****

CITY           SKY/WX    TMP DP  RH WIND       PRES   REMARKS
COOPERSTOWN    FAIR      45  32  61 SE32G48   29.90F
VALLEY CITY    FAIR      46  32  57 SE26G39   29.90F
OAKES          FAIR      48  37  66 E35G41    29.84F
GWINNER        CLEAR     48  36  61 SE30G39   29.92F
SHEYENNE NWR     N/A     49  33  54 SE24      29.95S
BUFFALO          N/A     45  24  43 SE43        N/A
WYNDMERE       NOT AVBL
 ***** THE ABOVE OBSERVATIONS ARE NON NWS ARE NOT QUALITY
       CONTROLLED AND MAY MIS-REPORT RAIN FOR SNOW...
$$

  *****  WEATHER ACROSS NORTHERN MINNESOTA  *****

CITY           SKY/WX    TMP DP  RH WIND       PRES   REMARKS
FLAG ISLAND    PTSUNNY   39  16  38 E12G20    30.17F
WARROAD        CLOUDY    39  28  65 E9        30.14F
ROSEAU         CLOUDY    46  19  34 SE14G22   30.12F
HALLOCK        CLOUDY    46  23  39 SE15G22   30.04F
THF RVR FALLS  CLOUDY    46  25  42 SE15      30.08F
6HR MIN TEMP:  46; 6HR MAX TEMP:  52;

HALSTAD          N/A     46  27  47 SE28        N/A
FOSSTON        CLOUDY    45  21  39 SE18G25   30.10F
BAUDETTE       PTSUNNY   45  16  31 E17G24    30.17F
6HR MIN TEMP:  43; 6HR MAX TEMP:  48;

WASKISH        CLOUDY    46  19  34 E10G18    30.16F
CROOKSTON      CLOUDY    48  30  49 SE18      30.05F
$$
  *****  WEATHER ACROSS CENTRAL AND WEST MINNESOTA  *****

CITY           SKY/WX    TMP DP  RH WIND       PRES   REMARKS
BEMIDJI        CLOUDY    44  23  42 SE18G29   30.15S
PARK RAPIDS    CLOUDY    44  24  45 SE17      30.16R
6HR MIN TEMP:  43; 6HR MAX TEMP:  49;

WADENA         CLOUDY    41  27  56 SE18G24   30.15S
DETROIT LAKES  CLOUDY    43  28  56 SE23G30   30.11F
MOORHEAD       CLOUDY    46  27  46 SE20G29   30.03F
FERGUS FALLS   PTSUNNY   45  25  45 SE25G33   30.02F
ELBOW LAKE     FAIR      45  30  57 E25G36    30.05F
6HR MIN TEMP:  42; 6HR MAX TEMP:  46;

MORRIS MN      SUNNY     46  36  66 E25G31    30.03F
STAPLES        CLOUDY    41  25  52 SE9       30.18S
WHEATON        MOSUNNY   50  37  62 E30G43    30.01F
$$
  *****  WEATHER ELSEWHERE ACROSS MINNESOTA  *****

CITY           SKY/WX    TMP DP  RH WIND       PRES   REMARKS
DULUTH         PTCLDY    36  19  50 E15       30.30F
6HR MIN TEMP:  35; 6HR MAX TEMP:  38;

INTRNTL FALLS  PTSUNNY   43  12  28 SE12      30.24F
6HR MIN TEMP:  41; 6HR MAX TEMP:  46;

ELY            CLEAR     39  23  52 SE10      30.29S
CLOQUET        MOCLDY    36  18  48 E10G16    30.29S
BRAINERD       CLOUDY    47  23  38 E10G23    30.21F
6HR MIN TEMP:  46; 6HR MAX TEMP:  50;

HIBBING        MOCLDY    42  18  37 SE15G22   30.27S
6HR MIN TEMP:  42; 6HR MAX TEMP:  50;

ALEXANDRIA     PTSUNNY   44  29  55 SE22G30   30.13F
6HR MIN TEMP:  40; 6HR MAX TEMP:  46;

SAINT CLOUD    MOSUNNY   45  27  49 E9G20     30.19F
6HR MIN TEMP:  40; 6HR MAX TEMP:  46;

MINNEAPOLIS    MOCLDY    51  26  37 E20       30.23F
6HR MIN TEMP:  46; 6HR MAX TEMP:  52;

$$

  *****  WEATHER ACROSS SOUTH DAKOTA  *****

CITY           SKY/WX    TMP DP  RH WIND       PRES   REMARKS
SIOUX FALLS    CLOUDY    63  36  36 S24G32    29.97F
6HR MIN TEMP:  59; 6HR MAX TEMP:  66;

BROOKINGS      NOT AVBL
WATERTOWN      PTSUNNY   60  36  40 SE21G30   29.93F
6HR MIN TEMP:  49; 6HR MAX TEMP:  62;

HURON          PTSUNNY   68  39  34 S17G35    29.80F
6HR MIN TEMP:  62; 6HR MAX TEMP:  72;

SISSETON         N/A     49  37  63 SE30G41   29.96F
ABERDEEN       MOSUNNY   66  39  37 SE32G45   29.79F
6HR MIN TEMP:  56; 6HR MAX TEMP:  68;

MITCHELL       CLOUDY    68  41  37 S26G38    29.86F
PIERRE         CLOUDY    75  37  25 S25G32    29.63F
6HR MIN TEMP:  65; 6HR MAX TEMP:  83;

MOBRIDGE       CLOUDY    73  37  27 SE25      29.56F
RAPID CITY     CLOUDY    75  40  28 S15G21    29.60F
6HR MIN TEMP:  71; 6HR MAX TEMP:  77;

$$

  *****  SOME WEATHER IN NEARBY STATES *****

CITY           SKY/WX    TMP DP  RH WIND       PRES   REMARKS
GLASGOW MT     MOSUNNY   52  46  80 SE14      29.61F
6HR MIN TEMP:  46; 6HR MAX TEMP:  53; 6HR PCP:  0.04;

GREAT FALLS MT PTSUNNY   48  17  29 SW32G43   29.75R
6HR MIN TEMP:  47; 6HR MAX TEMP:  56;

CHEYENNE WY    CLOUDY    70  22  16 SW18      29.88F
6HR MIN TEMP:  64; 6HR MAX TEMP:  73;

SCOTTSBLUFF NE PTSUNNY   80  33  18 S18G25    29.75F
6HR MIN TEMP:  74; 6HR MAX TEMP:  84;

OMAHA NE       PTSUNNY   68  38  33 S23G30    30.08F
6HR MIN TEMP:  60; 6HR MAX TEMP:  69;

DES MOINES IA  PTCLDY    64  33  31 SE13      30.18F
6HR MIN TEMP:  58; 6HR MAX TEMP:  66;

DAVENPORT IA   CLEAR     60  29  30 SE5       30.28R
6HR MIN TEMP:  55; 6HR MAX TEMP:  63;

CHICAGO IL     CLEAR     42  29  59 NE15      30.33F
6HR MIN TEMP:  42; 6HR MAX TEMP:  51;

EAU CLAIRE WI  PTCLDY    50  23  34 NE12      30.28F
6HR MIN TEMP:  46; 6HR MAX TEMP:  53;

LA CROSSE WI   MOCLDY    55  25  31 E5        30.27F
6HR MIN TEMP:  49; 6HR MAX TEMP:  56;

$$

  *****  SOME NATIONAL WEATHER *****

CITY           SKY/WX    TMP DP  RH WIND       PRES   REMARKS



USA.gov is the U.S. government's official web portal to all federal, state and local government web resources and services.